CW0311 Weather Reports


time (UTC)temp
C
wind
direction
speed
KPH
gust
KPH
rain 1hr
cm
rain 24hr
cm
rain mn
cm
humidity
%
barometer
mb
20260506201514 13 298 8.0 22.5 0.05 0.25 0.25 87 1010.2
20260506200031 13 323 3.2 20.9 0.08 0.25 0.25 87 1010.1
20260506194512 13 267 4.8 12.9 0.08 0.23 0.23 87 1010.3
20260506193011 14 293 3.2 14.5 0.13 0.23 0.23 87 1010.4
20260506191510 14 245 1.6 11.3 0.15 0.20 0.20 87 1010.4
20260506190010 14 233 4.8 16.1 0.15 0.18 0.18 87 1010.6
20260506184509 15 287 1.6 9.7 0.15 0.15 0.15 87 1010.5
20260506183006 15 256 1.6 12.9 0.10 0.10 0.10 87 1010.8
20260506181512 15 268 6.4 14.5 0.05 0.05 0.05 86 1010.9
20260506180013 16 235 3.2 16.1 0.03 0.03 0.03 84 1011.1
20260506174504 17 285 9.7 24.1 0.00 0.00 0.00 81 1011.2
20260506173004 18 274 8.0 25.7 0.00 0.00 0.00 77 1011.1
20260506171504 20 258 3.2 24.1 0.00 0.00 0.00 74 1011.0
20260506170002 20 265 4.8 20.9 0.00 0.00 0.00 73 1010.8
20260506164502 20 258 6.4 14.5 0.00 0.00 0.00 72 1010.9
20260506163106 20 268 8.0 17.7 0.00 0.00 0.00 73 1011.1
20260506161558 20 268 6.4 25.7 0.00 0.00 0.00 72 1011.4
20260506160108 20 260 9.7 25.7 0.00 0.00 0.00 72 1011.5
20260506154555 20 281 8.0 16.1 0.00 0.00 0.00 74 1011.8
20260506153052 19 264 8.0 24.1 0.00 0.00 0.00 75 1012.0
20260506151551 19 286 4.8 30.6 0.00 0.00 0.00 75 1012.2
20260506150050 19 258 9.7 27.4 0.00 0.00 0.00 74 1012.4
20260506144548 19 283 3.2 25.7 0.00 0.00 0.00 76 1012.5
20260506143047 19 249 6.4 19.3 0.00 0.00 0.00 78 1012.6
20260506141604 18 262 6.4 20.9 0.00 0.00 0.00 77 1012.5
20260506140043 18 257 3.2 11.3 0.00 0.00 0.00 79 1012.4
20260506134542 18 283 8.0 16.1 0.00 0.00 0.00 79 1012.4
20260506133040 18 240 4.8 16.1 0.00 0.00 0.00 81 1012.5
20260506131539 17 276 6.4 24.1 0.00 0.00 0.00 82 1012.6
20260506130034 16 242 1.6 12.9 0.00 0.00 0.00 83 1012.9
20260506124537 16 252 6.4 17.7 0.00 0.00 0.00 83 1013.0
20260506123039 15 277 4.8 24.1 0.00 0.00 0.00 84 1012.8
20260506121527 15 252 1.6 11.3 0.00 0.00 0.00 85 1012.8
20260506120035 15 281 3.2 9.7 0.00 0.00 0.00 86 1013.2
20260506114526 13 235 0.0 11.3 0.00 0.00 0.00 86 1013.0
20260506113021 13 277 3.2 9.7 0.00 0.00 0.00 87 1013.4
20260506111520 12 278 0.0 9.7 0.00 0.00 0.00 87 1013.5
20260506110024 12 312 1.6 14.5 0.00 0.00 0.00 87 1013.6
20260506104519 12 271 3.2 9.7 0.00 0.00 0.00 87 1013.4
20260506103026 12 254 3.2 11.3 0.00 0.00 0.00 87 1013.4
20260506101520 12 289 3.2 12.9 0.00 0.00 0.00 87 1013.3
20260506100016 12 265 1.6 8.0 0.00 0.00 0.00 87 1013.4
20260506094527 12 297 3.2 11.3 0.00 0.00 0.00 87 1013.3
20260506093023 12 283 1.6 11.3 0.00 0.00 0.00 87 1013.3
20260506091512 12 293 4.8 11.3 0.00 0.00 0.00 86 1013.3
20260506090013 12 285 3.2 9.7 0.00 0.00 0.00 86 1013.4
20260506084510 12 275 1.6 11.3 0.00 0.00 0.00 86 1013.4
20260506083010 12 295 3.2 9.7 0.00 0.00 0.00 86 1013.5
20260506081508 12 294 4.8 12.9 0.00 0.00 0.00 86 1013.5
20260506073003 13 293 1.6 19.3 0.00 0.00 0.00 85 1013.5
20260506071501 13 291 4.8 16.1 0.00 0.00 0.00 84 1013.4
20260506070117 13 293 6.4 17.7 0.00 0.00 0.00 84 1013.2
20260506061601 14 256 3.2 16.1 0.00 0.00 0.00 82 1013.3
20260506044554 13 278 1.6 12.9 0.00 0.00 0.00 80 1013.7
20260506043046 14 274 4.8 16.1 0.00 0.00 0.00 79 1013.9
20260506041550 14 280 0.0 9.7 0.00 0.00 0.00 78 1013.9
20260506040043 14 258 4.8 17.7 0.00 0.00 0.00 78 1013.9
20260506034540 14 272 1.6 12.9 0.00 0.00 0.00 78 1013.8
20260506033039 14 297 4.8 11.3 0.00 0.00 0.00 77 1013.8
20260506031554 14 253 6.4 22.5 0.00 0.00 0.00 77 1013.6
20260506030050 14 260 6.4 12.9 0.00 0.00 0.00 77 1013.7
20260506024538 15 289 4.8 20.9 0.00 0.00 0.00 76 1013.7
20260506023038 15 254 6.4 24.1 0.00 0.00 0.00 76 1013.9
20260506021537 15 223 4.8 20.9 0.00 0.00 0.00 75 1013.7
20260506020036 15 280 4.8 22.5 0.00 0.00 0.00 74 1013.7
20260506014536 15 308 8.0 16.1 0.00 0.00 0.00 74 1013.4
20260506013041 15 292 6.4 20.9 0.00 0.00 0.00 74 1013.4
20260506011535 16 291 4.8 14.5 0.00 0.00 0.00 73 1013.2
20260506010036 16 285 1.6 25.7 0.00 0.00 0.00 72 1013.2
20260506004604 16 287 3.2 14.5 0.00 0.00 0.00 72 1013.1
20260506003034 16 252 4.8 17.7 0.00 0.00 0.00 71 1012.8
20260506001535 17 298 3.2 17.7 0.00 0.00 0.00 70 1012.6
20260506000034 17 247 3.2 20.9 0.00 0.00 0.00 68 1012.3
20260505234603 18 187 6.4 19.3 0.00 0.00 0.00 66 1011.9
20260505233033 18 269 6.4 17.7 0.00 0.00 0.00 64 1011.8
20260505231535 20 263 3.2 17.7 0.00 0.00 0.00 63 1011.8
20260505230031 20 251 6.4 19.3 0.00 0.00 0.00 60 1011.5
20260505224533 21 238 6.4 22.5 0.00 0.00 0.00 60 1011.2
20260505223029 21 258 4.8 19.3 0.00 0.00 0.00 60 1011.1
20260505221529 22 246 4.8 17.7 0.00 0.00 0.00 59 1010.9
20260505220028 22 274 4.8 24.1 0.00 0.00 0.00 59 1010.8
20260505214533 22 254 12.9 24.1 0.00 0.00 0.00 55 1010.9
20260505213026 23 218 6.4 32.2 0.00 0.00 0.00 55 1010.8
20260505211526 24 236 8.0 22.5 0.00 0.00 0.00 54 1010.5
20260505210028 24 221 9.7 35.4 0.00 0.00 0.00 52 1010.4
20260505204527 25 250 14.5 37.0 0.00 0.00 0.00 51 1010.2
20260505203024 25 266 8.0 24.1 0.00 0.00 0.00 49 1010.2